Weather History for KCDJ - January, 2012

Change the Weather History Date:

Tuesday, January 10, 2012

  Actual Average (KIRK) Record (KIRK)
Temperature  
Mean Temperature 39 °F 26 °F  
Max Temperature 55 °F 35 °F 56 °F (2012)
Min Temperature 23 °F 17 °F -23 °F (1982)
Degree Days  
Heating Degree Days 26 39  
Month to date heating degree days 390  
Since 1 July heating degree days 2733  
Cooling Degree Days 0 0  
Month to date cooling degree days 0  
Year to date cooling degree days 0  
Moisture  
Dew Point 24 °F    
Average Humidity 67    
Maximum Humidity 92    
Minimum Humidity 30    
Precipitation  
Precipitation 0.00 in 0.03 in 0.73 in (1949)
Month to date precipitation 0.31  
Year to date precipitation 0.31  
Sea Level Pressure  
Sea Level Pressure 29.98 in    
Wind  
Wind Speed 2 mph (South)    
Max Wind Speed 9 mph    
Max Gust Speed -    
T = Trace of Precipitation, MM = Missing Value Source: NWS Daily Summary

Daily Weather History Graph

Daily Weather History Graph

Search for Another Location

Airport or City:

Trip Planner

Search our weather history database for the weather conditions in past years. The results will help you decide how hot, cold, wet, or windy it might be!

Date:

Astronomy

Jan. 10, 2012 Rise Set
Actual Time 7:35 AM CST 5:08 PM CST
Civil Twilight 7:05 AM CST 5:38 PM CST
Nautical Twilight 6:31 AM CST 6:11 PM CST
Astronomical Twilight 5:59 AM CST 6:44 PM CST
Moon 7:00 PM CST (1/10) 8:13 AM CST (1/10)
Length of Visible Light 10h 32m
Length of Day
9h 32m
Full, 98% of the Moon is Illuminated
Jan 10
Full
Jan 16
Last Quarter
Jan 23
New
Jan 30
First Quarter
Feb 7
Full

Hourly Weather History & Observations

Time (CST) Temp. Windchill Dew Point Humidity Pressure Visibility Wind Dir Wind Speed Gust Speed Precip Events Conditions
12:52 AM 25.0 °F 20.7 °F 21.0 °F 85% 30.11 in - SSE 3.5 mph - N/A   Unknown
1:52 AM 27.0 °F - 23.0 °F 85% 30.11 in - Calm Calm - N/A   Unknown
2:52 AM 27.0 °F - 23.0 °F 85% 30.12 in - Calm Calm - N/A   Unknown
3:52 AM 24.1 °F - 21.0 °F 88% 30.11 in - Calm Calm - N/A   Unknown
4:52 AM 28.0 °F - 23.0 °F 81% 30.09 in - Calm Calm - N/A   Unknown
5:52 AM 25.0 °F - 21.0 °F 85% 30.10 in - Calm Calm - N/A   Unknown
6:52 AM 24.1 °F - 21.0 °F 88% 30.11 in - Calm Calm - N/A   Unknown
7:52 AM 23.0 °F - 21.0 °F 92% 30.11 in - Calm Calm - N/A   Unknown
8:52 AM 30.9 °F - 26.1 °F 82% 30.10 in - Calm Calm - N/A   Unknown
9:52 AM 37.9 °F - 28.0 °F 68% 30.08 in - Calm Calm - N/A   Unknown
10:52 AM 43.0 °F 40.3 °F 28.9 °F 58% 30.06 in - SSE 4.6 mph - N/A   Unknown
11:52 AM 48.9 °F - 30.0 °F 48% 30.02 in - Variable 4.6 mph - N/A   Unknown
12:52 PM 54.0 °F - 30.0 °F 40% 29.96 in - SSW 8.1 mph - N/A   Unknown
1:52 PM 55.0 °F - 25.0 °F 31% 29.93 in - SSW 9.2 mph - N/A   Unknown
2:52 PM 55.9 °F - 25.0 °F 30% 29.91 in - Variable 5.8 mph - N/A   Unknown
3:52 PM 55.0 °F - 25.0 °F 31% 29.90 in - SSW 4.6 mph - N/A   Unknown
4:52 PM 51.1 °F - 24.1 °F 35% 29.88 in - South 3.5 mph - N/A   Unknown
5:52 PM 37.9 °F - 24.1 °F 57% 29.89 in - Calm Calm - N/A   Unknown
6:52 PM 34.0 °F - 23.0 °F 64% 29.88 in - Calm Calm - N/A   Unknown
7:52 PM 30.9 °F - 23.0 °F 72% 29.87 in - Calm Calm - N/A   Unknown
8:52 PM 30.0 °F - 21.9 °F 72% 29.86 in - Calm Calm - N/A   Unknown
9:52 PM 28.9 °F - 23.0 °F 78% 29.83 in - Calm Calm - N/A   Unknown
10:52 PM 28.0 °F 24.2 °F 21.9 °F 78% 29.80 in - NNW 3.5 mph - N/A   Unknown
11:52 PM 25.0 °F 20.7 °F 21.0 °F 85% 29.79 in - South 3.5 mph - N/A   Unknown